Fresno, CA

5:09 AM PDT on May 21, 2018 (GMT -0700)
Fresno Yosemite International

Weather History for KFAT - January, 2012

Change the Weather History Date:

Friday, January 27, 2012

  Actual Average Record
Temperature  
Mean Temperature 54 °F 48 °F  
Max Temperature 56 °F 57 °F 70 °F (1934)
Min Temperature 52 °F 39 °F 25 °F (1949)
Degree Days  
Heating Degree Days 11    
Month to date heating degree days 432  
Since 1 July heating degree days 1394  
Cooling Degree Days 0    
Month to date cooling degree days 0  
Year to date cooling degree days 0  
Growing Degree Days 3 (Base 50)    
Moisture  
Dew Point 50 °F    
Average Humidity 89    
Maximum Humidity 100    
Minimum Humidity 77    
Precipitation  
Precipitation 0.00 in 0.07 in 1.36 in (1983)
Month to date precipitation 1.37 1.90  
Year to date precipitation 1.37 1.90  
Since 1 July precipitation 2.94  
Snow  
Snow 0.00 in - - ()
Month to date snowfall 0.0  
Since 1 July snowfall 0.0  
Snow Depth 0.00 in    
Sea Level Pressure  
Sea Level Pressure 30.23 in    
Wind  
Wind Speed 5 mph (WNW)    
Max Wind Speed 10 mph    
Max Gust Speed 15 mph    
Visibility 4 miles    
Events      
T = Trace of Precipitation, MM = Missing Value Source: NWS Daily Summary

Daily Weather History Graph

Daily Weather History Graph

Search for Another Location

Airport or City:

Astronomy

Jan. 27, 2012 Rise Set
Actual Time 7:04 AM PST 5:18 PM PST
Civil Twilight 6:37 AM PST 5:46 PM PST
Nautical Twilight 6:06 AM PST 6:17 PM PST
Astronomical Twilight 5:35 AM PST 6:48 PM PST
Moon 9:10 AM PST (1/27) 10:04 PM PST (1/27)
Length of Visible Light 11h 08m
Length of Day
10h 13m
Waxing Crescent, 20% of the Moon is Illuminated
Jan 27
Waxing Crescent
Jan 30
First Quarter
Feb 7
Full
Feb 14
Last Quarter
Feb 21
New

Hourly Weather History & Observations

Time (PST) Temp. Dew Point Humidity Pressure Visibility Wind Dir Wind Speed Gust Speed Precip Events Conditions
12:31 AM 55.4 °F 50.0 °F 82% 30.21 in 4.0 mi Calm Calm - N/A   Haze
12:53 AM 55.9 °F 50.0 °F 80% 30.20 in 4.0 mi Calm Calm - N/A   Haze
1:29 AM 55.4 °F 51.8 °F 88% 30.20 in 3.0 mi Calm Calm - N/A   Overcast
1:53 AM 55.0 °F 51.1 °F 86% 30.20 in 3.0 mi Calm Calm - N/A   Overcast
2:53 AM 54.0 °F 52.0 °F 93% 30.19 in 2.0 mi NW 9.2 mph - N/A   Overcast
3:03 AM 53.6 °F 51.8 °F 94% 30.19 in 2.0 mi WNW 8.1 mph - N/A   Overcast
3:53 AM 53.1 °F 52.0 °F 96% 30.18 in 2.0 mi NW 8.1 mph - N/A   Overcast
4:53 AM 53.1 °F 51.1 °F 93% 30.19 in 1.0 mi WNW 8.1 mph - N/A   Overcast
5:53 AM 52.0 °F 51.1 °F 97% 30.19 in 1.0 mi WNW 6.9 mph - N/A   Overcast
6:48 AM 51.8 °F 50.0 °F 94% 30.21 in 1.0 mi WNW 9.2 mph - N/A   Overcast
6:53 AM 52.0 °F 50.0 °F 93% 30.21 in 1.0 mi WNW 8.1 mph - N/A   Overcast
7:53 AM 52.0 °F 51.1 °F 97% 30.23 in 1.0 mi WNW 3.5 mph - N/A   Overcast
8:00 AM 51.8 °F 51.8 °F 100% 30.23 in 1.0 mi WNW 5.8 mph - N/A   Overcast
8:15 AM 51.8 °F 51.8 °F 100% 30.24 in 1.5 mi WNW 6.9 mph - N/A   Overcast
8:53 AM 53.1 °F 51.1 °F 93% 30.25 in 2.5 mi WNW 6.9 mph - N/A   Overcast
9:53 AM 53.1 °F 51.1 °F 93% 30.26 in 3.0 mi NW 6.9 mph - N/A   Overcast
10:53 AM 54.0 °F 51.1 °F 90% 30.26 in 3.0 mi WNW 4.6 mph - N/A   Overcast
11:53 AM 53.1 °F 50.0 °F 89% 30.25 in 3.0 mi West 6.9 mph - N/A   Overcast
12:05 PM 53.6 °F 51.8 °F 94% 30.25 in 1.5 mi WNW 5.8 mph - N/A   Overcast
12:40 PM 51.8 °F 51.8 °F 100% 30.24 in 1.5 mi WNW 8.1 mph - N/A   Overcast
12:53 PM 53.1 °F 51.1 °F 93% 30.23 in 1.5 mi WNW 6.9 mph - N/A   Overcast
1:18 PM 53.6 °F 51.8 °F 94% 30.23 in 1.5 mi NW 8.1 mph - N/A   Overcast
1:26 PM 53.6 °F 51.8 °F 94% 30.23 in 3.0 mi WNW 8.1 mph - N/A   Overcast
1:53 PM 55.0 °F 51.1 °F 86% 30.22 in 3.0 mi NW 6.9 mph - N/A   Overcast
2:46 PM 55.4 °F 50.0 °F 82% 30.23 in 6.0 mi WNW 3.5 mph - N/A   Haze
2:53 PM 55.9 °F 50.0 °F 80% 30.23 in 6.0 mi WNW 5.8 mph - N/A   Haze
3:53 PM 55.9 °F 50.0 °F 80% 30.22 in 6.0 mi Calm Calm - N/A   Haze
4:53 PM 55.0 °F 48.9 °F 80% 30.22 in 6.0 mi West 4.6 mph - N/A   Haze
5:53 PM 54.0 °F 48.9 °F 83% 30.23 in 8.0 mi Calm Calm - N/A   Mostly Cloudy
6:53 PM 54.0 °F 50.0 °F 86% 30.25 in 8.0 mi Calm Calm - N/A   Overcast
7:53 PM 54.0 °F 50.0 °F 86% 30.28 in 9.0 mi WNW 6.9 mph - N/A   Overcast
8:53 PM 55.0 °F 48.0 °F 77% 30.29 in 10.0 mi NW 5.8 mph - N/A   Overcast
9:53 PM 54.0 °F 46.9 °F 77% 30.30 in 10.0 mi NNW 4.6 mph - N/A   Overcast
10:53 PM 54.0 °F 46.9 °F 77% 30.29 in 10.0 mi Calm Calm - N/A   Overcast
11:53 PM 54.0 °F 48.0 °F 80% 30.30 in 10.0 mi Calm Calm - N/A   Overcast